Powrót do katalogu

STARLINK-4658

AktywnyŁącznośćVLEO
NORAD 53612·PAYLOAD·🇺🇸 United States

Wystrzelony Aug 28, 2022 z Cape Canaveral Space Force Station

Loading…

Następne Przeloty (najbliższe 24 godziny)

TLE

ŚwieżeSource: CelesTrak SupGP

Epoka: Sep 14, 2026, 22:01 UTC

1 53612C 22104AA  26257.91784722  .00021509  00000+0  61553-3 0  2574
2 53612  53.1579  94.0429 0001258  85.2514 297.9125 15.35380391    12

Śledź STARLINK-4658 w czasie rzeczywistym z AllMySat

Download on the App Store